User: anonymous   Login
Location: Unspecified
(0.0000°N, 0.0000°E)
Time: 18:54:42
(UTC+00:00)
Language:

NOSS 3-3 (C) - Orbit

View from above orbital plane
View from above orbital plane
View from above satellite
View from above satellite

Ground track
Ground track

The orbit data is extracted from the following two-line orbital elements,

1 28541U 05004C   17199.88701923 0.00000060  00000-0  88107-4 0    01
2 28541  63.4320 107.8177 0268000 357.7425   2.2575 13.40735847    03
Epoch (UTC): 18 July 2017 21:17:18
Eccentricity: 0.0268000
inclination: 63.4320°
perigee height: 906 km
apogee height: 1307 km
right ascension of ascending node: 107.8177°
argument of perigee: 357.7425°
revolutions per day: 13.40735847
mean anomaly at epoch: 2.2575°
orbit number at epoch: 0

The dashed part of the orbit path shows where the satellite is in the earth's shadow,  

DLR